ATLAS CENTAUR 2 R/B, 694

Orbit data source: Space-Track

ATLAS CENTAUR 2 R/B, 694 is space debris in LEO originally from a launch on Wed, 27 Nov 1963 UTC via an ATLAS CENTAUR launch vehicle from the Air Force Eastern Test Range (AFETR). Debris objects in space refer to the collection of defunct objects orbiting the Earth. Examples of debris include non-operational satellites, rocket bodies, and fragments generated from explosions, collisions, or faulty payload assembly.

Loading next visibility...
Identifier
694, 1963-047A
Orbit
LEO
Last TLE update
16 hours ago
Origin
Manufacturer
GD/Convair
Mission
Civil Technology
Bus & Motor
AC R&D, Unknown motor
Mass
4,300 kg wet, 900 kg dry
Launch date (UTC)
1963-11-27 (62 years ago)
Launch vehicle
ATLAS CENTAUR
Launch site
Air Force Eastern Test Range (AFETR)
Object type
Payload
Rocket body
Debris
Shape & HBR
Cyl + 2 Nozzle, 8.59 m
Radar Cross Section
24.688 m², Large (>1 m²)

Expand to show TLE details & history

TLE from 16 hours ago
0 ATLAS CENTAUR 2 R/B
1   694U 63047A   25186.21485882  .00002714  00000-0  32584-3 0  9998
2   694  30.3511 137.2902 0552589  61.4695 304.0406 14.10848376 96254
Epoch: 2025-07-05T05:09Z
TLE epoch observation values (Epoch: 2025-07-05T05:09:23.802Z)
Latitude
-0°
Longitude
136.48491°
Altitude
647.116 km
Speed
7.644 km/s
True Right ascension
09h 09m 09s
True Declination
0° 00' 00"
Sunlit
Object was in daylight at epoch
Visualization orbit readout
Latitude
-29.8304°
Longitude
29.6639°
Altitude
1,254.342 km
Speed
7.031 km/s
Apparent Right ascension
00h 10m 46s
Apparent Declination
-39° 04' 41"
Sunlit
Object is in daylight
Visualization observer readout
Local Sidereal Time
09:34:29
Azimuth
258.812° W
Elevation
-60.082°
Doppler factor
1
Orbital elements
Apogee altitude
1,260.235 km
Perigee altitude
460.264 km
Semi-major axis
7,238.386 km
Eccentricity
0.05526
Inclination
30.3511°
RAAN
137.2902°
Arg. of periapsis
61.4695°
True anomaly
Unknown
Mean anomaly
304.0406°
Eccentric anomaly
Unknown
Mean motion
3.52436 °/min
Orbital period
102.15 mins
BSTAR
0.00032584
Loading maneuver chart data...
Loading SW <> Apogee altitude chart data...

ATLAS CENTAUR 2 R/B Visibility forecast

Observer location: undefined°, undefined°

Span
Click to sort rows by Start time (UTC) header in descending order
Start Az.
Max El. time (UTC)
Max El. Az.
Max El.
End time (UTC)
End Az.
4 mins2025-07-06 01:50:26.019Z207.515° SW2025-07-06 01:52:26.019Z171.012° S15.36°2025-07-06 01:54:26.019Z135.164° SSE
4 mins2025-07-06 03:38:26.019Z211.118° SW2025-07-06 03:39:26.019Z191.444° SSW17.308°2025-07-06 03:42:26.019Z140.856° SSE
|